FENGYUN 1C DEB

Satellite information

Favourite Embed

Satellite Type and Status

DEBRISIN ORBIT

Key statistics

Satellite FENGYUN 1C DEB at a glance.

Uptime

9665

Days in orbit

Revolutions

≈ 14.2

Per day

Orbit

SSO

Sun Synchronous Orbit

Inclination

98.5

Latest

Satellite identification and parameters

Extended collection of information and parameters for FENGYUN 1C DEB.

Object identification

Identified? True

Debris? True

Object name: FENGYUN 1C DEB

International designator: 1999-025BJW

Object number (NORAD): 31192

Object ID (CCSDS): 31192

Country: PEOPLES REPUBLIC OF CHINA (PRC)

Current information (Y/N): Y

RCS size: SMALL

Orbital parameters

Period: 101.349 minutes

Inclination: 98.5495 deg

SMA: 7200.656 km

Apoapsis: 1008.161 km

Periapsis: 636.88 km

RAAN: 280.6751 deg

Eccentricy: 0.02578105

Argument of periapsis: 252.7888 deg

Mean anomaly: 104.4924 deg

Mean motion: 14.20838419 rev/day

Mean motion (dot): 0.00001578 rev/day2

B* drag term: 0.00053859883 1/REarth

Two-line elements (TLE)

Creation date: Oct. 23, 2025, 2:46 a.m.

Reference frame: TEME

Reference center: EARTH

Epoch: Oct. 22, 2025, 9:34 a.m. UTC

TLE line 0: 0 FENGYUN 1C DEB

TLE line 1: 1 31192U 99025BJW 25295.39883966 .00001578 00000-0 53860-3 0 9992

TLE line 2: 2 31192 98.5495 280.6751 0257810 252.7888 104.4924 14.20838419960144

Live tracking on map

Real-time ground track for satellite FENGYUN 1C DEB.

In-orbit conjunctions

A list of the most updated potential collisions computed for object FENGYUN 1C DEB.

Target Orbit TCA Probability of collision Miss distance Type
CZ-4C DEB LEO 2025-10-06 17:28:34 0.0001483796 117.0 (m) DEBRIS
FENGYUN 1C DEB SSO 2025-09-12 02:24:40 0.0001085173 472.0 (m) DEBRIS
FENGYUN 1C DEB SSO 2024-11-14 15:39:37 0.0004335905 65.0 (m) DEBRIS

Associated space launch

Chinese polar orbiting meteorological satellite

FENGYUN 1C DEB was lifted into orbit during the mission ‘Long March 4B | Feng Yun 1C’, on board a Long March 4B space rocket.

The launch took place on May 10, 1999, 1:33 a.m. from Launch Complex 7.

For more information about the launch, click the button.

Launch to space Long March 4B | Feng Yun 1C
Long March 4B | Feng Yun 1C

Agency: N/A

Status: Launch Successful

Launch date: May 10, 1999, 1:33 a.m. UTC

Rocket: Long March 4B

Launch pad: Launch Complex 7

Location: Taiyuan Satellite Launch Center, People's Republic of China

...

Latest news about this satellite

There are no fresh news available about this satellite. Check back as we update our databases every day.


Newsletter sign-up

Weekly statistics, charts and insights to help you stay on top of the space industry.